contact: severine.martini@mio.osupytheas.fr, dominique.lefevre@mio.osupytheas.fr
Project:EMSO Ligure-ouest http://www.emso-fr.org/EMSO-France
Sensor Aquadopp, Serial 05974 
DOI : "https://doi.org/10.17882/97948" 
Title:EMSO Western Ligurian : Data Bathybot Aquadopp sensor - deploiement 2023-04-28
Datetime,Profondeur,Latitude,Longitude,X_East,Y_North,Z_up,Amplitude_X,Amplitude_Y,Amplitude_Z,Batterie,Sound_Speed,Heading,Pitch,Roll,Pressure,Temperature,Fluorescence,Speed,Direction
time,m,degree_north,degree_east,m.s-1,m.s-1,m.s-1,1,1,1,Volt,m.s-1,degree,degree,degree,dbar,degree_C,arbitrary units (a.u.),m.s-1,degree
2023-10-14T00:03:13,2420,42.8014,5.9826,0.958,0.051,3.417,155.0,151.0,152.0,11.8,1504.7,271.4,-0.9,0.9,2485.442,13.28,785.0,0.959,87.0
2023-10-14T00:06:13,2420,42.8014,5.9826,0.317,-0.191,3.665,155.0,151.0,152.0,11.8,1504.7,271.3,-0.8,0.9,2485.546,13.28,788.0,0.37,121.1
2023-10-14T00:09:13,2420,42.8014,5.9826,0.417,0.287,3.561,155.0,151.0,152.0,11.8,1504.7,271.4,-0.9,0.8,2485.619,13.28,794.0,0.506,55.5
2023-10-14T00:12:13,2420,42.8014,5.9826,-0.045,0.045,3.622,155.0,151.0,152.0,11.8,1504.7,271.5,-0.8,0.9,2485.233,13.28,790.0,0.063,315.0
2023-10-14T00:15:13,2420,42.8014,5.9826,0.484,0.051,3.911,155.0,151.0,152.0,11.8,1504.7,271.4,-0.9,0.9,2485.227,13.28,793.0,0.487,84.0
2023-10-14T00:18:13,2420,42.8014,5.9826,0.553,0.052,3.795,155.0,151.0,152.0,11.8,1504.7,271.6,-0.8,0.8,2485.508,13.28,791.0,0.555,84.6
2023-10-14T00:21:13,2420,42.8014,5.9826,-0.206,0.54,3.717,155.0,151.0,152.0,11.8,1504.7,271.4,-0.9,0.9,2485.44,13.28,795.0,0.578,339.1
2023-10-14T00:24:13,2420,42.8014,5.9826,-0.177,-0.409,3.734,155.0,151.0,152.0,11.8,1504.7,271.4,-0.8,0.9,2485.301,13.28,797.0,0.446,203.4
2023-10-14T00:27:13,2420,42.8014,5.9826,0.224,-0.197,3.759,155.0,151.0,152.0,11.8,1504.7,271.4,-0.8,0.9,2485.502,13.28,779.0,0.298,131.3
2023-10-14T00:30:13,2420,42.8014,5.9826,-0.077,0.046,3.626,154.0,151.0,152.0,11.8,1504.7,271.4,-0.8,0.9,2485.386,13.28,786.0,0.089,300.9
2023-10-14T00:33:13,2420,42.8014,5.9826,0.219,0.06,4.19,154.0,151.0,152.0,11.8,1504.7,271.4,-0.8,0.9,2485.338,13.28,780.0,0.227,74.7
2023-10-14T00:36:13,2420,42.8014,5.9826,-0.001,-0.2,2.216,155.0,151.0,152.0,11.8,1504.7,271.3,-0.8,0.9,2485.042,13.28,788.0,0.2,180.3
2023-10-14T00:39:13,2420,42.8014,5.9826,0.804,-0.229,3.149,155.0,151.0,152.0,11.8,1504.7,271.3,-0.8,0.9,2485.235,13.28,783.0,0.836,105.9
2023-10-14T00:42:13,2420,42.8014,5.9826,0.383,0.296,3.566,155.0,151.0,152.0,11.8,1504.7,271.3,-0.8,0.9,2485.324,13.28,792.0,0.484,52.3
2023-10-14T00:45:13,2420,42.8014,5.9826,0.116,0.546,3.405,155.0,151.0,152.0,11.8,1504.7,271.4,-0.8,0.9,2485.275,13.28,792.0,0.558,12.0
2023-10-14T00:48:13,2420,42.8014,5.9826,0.537,0.304,3.389,155.0,151.0,152.0,11.8,1504.7,271.3,-0.8,0.9,2485.44,13.28,786.0,0.617,60.5
2023-10-14T00:51:13,2420,42.8014,5.9826,0.089,-0.175,3.882,154.0,151.0,152.0,11.8,1504.7,271.5,-0.8,0.9,2485.47,13.28,783.0,0.196,153.0
2023-10-14T00:54:13,2420,42.8014,5.9826,0.024,0.067,3.476,155.0,151.0,152.0,11.8,1504.7,271.3,-0.8,0.9,2485.609,13.28,778.0,0.071,19.7
2023-10-14T00:57:13,2420,42.8014,5.9826,0.135,0.076,4.296,155.0,151.0,152.0,11.8,1504.7,271.4,-0.8,0.9,2485.171,13.28,799.0,0.154,60.6
2023-10-14T01:03:13,2420,42.8014,5.9826,0.169,0.069,4.211,155.0,151.0,152.0,11.8,1504.7,271.3,-0.9,0.9,2485.538,13.28,875.0,0.182,67.8
2023-10-14T01:06:13,2420,42.8014,5.9826,0.009,0.041,2.638,155.0,151.0,152.0,11.8,1504.7,271.3,-0.8,0.9,2485.207,13.28,777.0,0.041,12.4
2023-10-14T01:09:13,2420,42.8014,5.9826,0.499,0.051,3.907,155.0,151.0,152.0,11.8,1504.7,271.3,-0.8,0.9,2485.314,13.28,782.0,0.502,84.2
2023-10-14T01:12:13,2420,42.8014,5.9826,0.058,-0.191,3.889,155.0,151.0,152.0,11.8,1504.7,271.3,-0.9,0.9,2485.087,13.28,792.0,0.199,163.1
2023-10-14T01:15:13,2420,42.8014,5.9826,0.598,0.068,3.726,155.0,151.0,152.0,11.8,1504.7,271.4,-0.8,0.9,2485.382,13.28,778.0,0.602,83.5
2023-10-14T01:18:13,2420,42.8014,5.9826,-0.016,-0.166,3.948,155.0,151.0,152.0,11.8,1504.7,271.5,-0.8,0.9,2485.291,13.28,780.0,0.166,185.5
2023-10-14T01:21:13,2420,42.8014,5.9826,0.416,0.042,3.954,155.0,151.0,152.0,11.8,1504.7,271.4,-0.8,0.9,2485.33,13.28,783.0,0.418,84.2
2023-10-14T01:24:13,2420,42.8014,5.9826,0.17,0.549,3.373,155.0,151.0,152.0,11.8,1504.7,271.3,-0.9,0.9,2485.055,13.28,769.0,0.575,17.2
2023-10-14T01:27:13,2420,42.8014,5.9826,0.179,-0.181,3.77,155.0,151.0,152.0,11.8,1504.7,271.4,-0.8,0.9,2485.277,13.28,1810.0,0.254,135.3
2023-10-14T01:30:13,2420,42.8014,5.9826,-0.054,0.308,4.05,155.0,151.0,152.0,11.8,1504.7,271.3,-0.8,0.9,2485.209,13.28,782.0,0.313,350.1
2023-10-14T01:33:13,2420,42.8014,5.9826,0.228,0.036,3.291,155.0,151.0,152.0,11.8,1504.7,271.3,-0.9,0.9,2485.048,13.28,790.0,0.23,81.0
2023-10-14T01:36:13,2420,42.8014,5.9826,-0.092,0.062,3.651,155.0,151.0,152.0,11.8,1504.7,271.4,-0.9,0.8,2485.422,13.28,783.0,0.11,304.0
2023-10-14T01:39:13,2420,42.8014,5.9826,0.162,-0.208,3.814,155.0,151.0,152.0,11.8,1504.7,271.4,-0.8,0.9,2485.484,13.28,788.0,0.264,142.1
2023-10-14T01:42:13,2420,42.8014,5.9826,0.51,0.047,3.82,155.0,151.0,152.0,11.8,1504.7,271.5,-0.8,0.9,2485.591,13.28,779.0,0.512,84.7
2023-10-14T01:45:13,2420,42.8014,5.9826,0.199,0.056,4.202,155.0,151.0,152.0,11.8,1504.7,271.4,-0.8,0.9,2485.316,13.28,786.0,0.206,74.3
2023-10-14T01:48:13,2420,42.8014,5.9826,0.32,0.054,4.054,155.0,151.0,152.0,11.8,1504.7,271.4,-0.8,0.9,2485.388,13.28,806.0,0.324,80.4
2023-10-14T01:51:13,2420,42.8014,5.9826,0.141,0.059,4.241,154.0,151.0,152.0,11.8,1504.7,271.4,-0.8,0.9,2485.241,13.28,779.0,0.152,67.3
2023-10-14T01:54:13,2420,42.8014,5.9826,0.356,0.311,3.589,155.0,151.0,152.0,11.8,1504.7,271.4,-0.8,0.9,2485.111,13.28,786.0,0.473,48.9
2023-10-14T01:57:13,2420,42.8014,5.9826,0.35,0.29,3.616,155.0,151.0,152.0,11.8,1504.7,271.3,-0.8,0.9,2485.239,13.28,792.0,0.455,50.4
2023-10-14T02:03:13,2420,42.8014,5.9826,-0.018,0.271,3.881,155.0,151.0,152.0,11.8,1504.7,271.4,-0.8,0.9,2485.416,13.28,781.0,0.272,356.2
2023-10-14T02:06:13,2420,42.8014,5.9826,0.283,0.054,3.224,154.0,151.0,152.0,11.8,1504.7,271.4,-0.8,0.9,2485.356,13.28,791.0,0.288,79.2
2023-10-14T02:09:13,2420,42.8014,5.9826,0.361,0.293,3.625,155.0,151.0,152.0,11.8,1504.7,271.4,-0.8,0.9,2485.227,13.28,800.0,0.465,50.9
2023-10-14T02:12:13,2420,42.8014,5.9826,0.168,0.045,4.216,155.0,151.0,152.0,11.8,1504.7,271.3,-0.9,0.9,2485.233,13.28,788.0,0.173,75.0
2023-10-14T02:15:13,2420,42.8014,5.9826,0.05,-0.181,3.914,155.0,151.0,152.0,11.8,1504.7,271.4,-0.8,0.9,2485.432,13.28,785.0,0.187,164.6
2023-10-14T02:18:13,2420,42.8014,5.9826,0.324,0.293,3.645,155.0,151.0,152.0,11.8,1504.7,271.3,-0.8,0.8,2485.332,13.28,788.0,0.437,47.9
2023-10-14T02:21:13,2420,42.8014,5.9826,0.331,0.538,3.15,154.0,151.0,152.0,11.8,1504.7,271.5,-0.8,0.9,2485.297,13.28,788.0,0.632,31.6
2023-10-14T02:24:13,2420,42.8014,5.9826,0.264,0.053,4.178,154.0,151.0,152.0,11.8,1504.7,271.4,-0.8,0.9,2485.374,13.28,792.0,0.269,78.7
2023-10-14T02:27:13,2420,42.8014,5.9826,0.402,0.292,3.561,155.0,151.0,152.0,11.8,1504.7,271.4,-0.8,0.9,2485.554,13.28,777.0,0.497,54.0
2023-10-14T02:30:13,2420,42.8014,5.9826,0.533,0.303,3.432,155.0,151.0,152.0,11.8,1504.7,271.3,-0.8,0.9,2485.159,13.28,786.0,0.613,60.4
2023-10-14T02:33:13,2420,42.8014,5.9826,0.548,0.056,3.828,155.0,151.0,152.0,11.8,1504.7,271.4,-0.8,0.9,2485.368,13.28,788.0,0.551,84.2
2023-10-14T02:36:13,2420,42.8014,5.9826,0.045,0.777,3.057,155.0,151.0,152.0,11.7,1504.7,271.3,-0.8,0.8,2485.291,13.28,787.0,0.778,3.3
2023-10-14T02:39:13,2420,42.8014,5.9826,0.256,0.296,3.683,155.0,151.0,152.0,11.8,1504.7,271.3,-0.8,0.9,2485.32,13.28,780.0,0.391,40.9
2023-10-14T02:42:13,2420,42.8014,5.9826,0.759,0.013,3.635,155.0,151.0,152.0,11.8,1504.7,271.5,-0.8,0.9,2484.83,13.28,791.0,0.759,89.0
2023-10-14T02:45:13,2420,42.8014,5.9826,0.07,0.287,2.136,155.0,151.0,152.0,11.8,1504.7,271.3,-0.8,0.8,2485.408,13.28,795.0,0.295,13.7
2023-10-14T02:48:13,2420,42.8014,5.9826,0.619,-0.219,3.369,155.0,151.0,152.0,11.8,1504.7,271.4,-0.8,0.9,2485.615,13.28,774.0,0.657,109.5
2023-10-14T02:51:13,2420,42.8014,5.9826,0.117,0.063,4.265,154.0,151.0,152.0,11.8,1504.7,271.5,-0.8,0.9,2485.183,13.28,780.0,0.132,61.7
2023-10-14T02:54:13,2420,42.8014,5.9826,-0.097,0.049,3.629,155.0,151.0,152.0,11.8,1504.7,271.3,-0.8,0.9,2484.99,13.28,783.0,0.108,296.8
2023-10-14T02:57:13,2420,42.8014,5.9826,-0.528,0.546,3.214,155.0,151.0,152.0,11.8,1504.7,271.4,-0.9,0.9,2485.575,13.28,787.0,0.76,316.0
2023-10-14T03:03:13,2420,42.8014,5.9826,0.703,-0.19,3.242,155.0,151.0,152.0,11.8,1504.7,271.5,-0.8,0.9,2485.42,13.28,823.0,0.728,105.1
2023-10-14T03:06:13,2420,42.8014,5.9826,0.036,0.303,3.946,155.0,151.0,152.0,11.8,1504.7,271.5,-0.8,0.9,2485.083,13.28,780.0,0.305,6.8
2023-10-14T03:09:13,2420,42.8014,5.9826,0.456,0.043,3.906,155.0,151.0,152.0,11.8,1504.7,271.3,-0.8,0.9,2485.183,13.28,791.0,0.458,84.6
2023-10-14T03:12:13,2420,42.8014,5.9826,0.226,-0.202,3.705,155.0,151.0,152.0,11.8,1504.7,271.3,-0.8,0.9,2485.364,13.28,790.0,0.303,131.8
2023-10-14T03:15:13,2420,42.8014,5.9826,0.249,0.052,3.276,155.0,151.0,152.0,11.8,1504.7,271.4,-0.9,0.9,2485.585,13.28,787.0,0.254,78.2
2023-10-14T03:18:13,2420,42.8014,5.9826,0.144,-0.459,3.347,155.0,151.0,152.0,11.8,1504.7,271.4,-0.9,0.9,2484.992,13.28,790.0,0.481,162.6
2023-10-14T03:21:13,2420,42.8014,5.9826,0.608,0.039,3.776,155.0,151.0,152.0,11.8,1504.7,271.3,-0.8,0.9,2485.324,13.28,788.0,0.609,86.3
2023-10-14T03:24:13,2420,42.8014,5.9826,0.281,-0.183,3.677,155.0,151.0,152.0,11.8,1504.7,271.5,-0.8,0.9,2485.32,13.28,782.0,0.335,123.1
2023-10-14T03:27:12,2420,42.8014,5.9826,0.436,-0.217,3.522,155.0,151.0,152.0,11.8,1504.7,271.4,-0.8,0.9,2485.38,13.28,794.0,0.487,116.5
2023-10-14T03:30:13,2420,42.8014,5.9826,0.184,-0.445,3.352,155.0,151.0,152.0,11.8,1504.7,271.4,-0.8,0.9,2485.231,13.28,803.0,0.482,157.5
2023-10-14T03:33:13,2420,42.8014,5.9826,0.531,-0.2,3.469,155.0,151.0,152.0,11.8,1504.7,271.4,-0.8,0.9,2485.093,13.28,788.0,0.567,110.6
2023-10-14T03:36:13,2420,42.8014,5.9826,0.166,0.058,3.387,154.0,151.0,152.0,11.8,1504.7,271.6,-0.8,0.9,2485.442,13.28,790.0,0.175,70.7
2023-10-14T03:39:13,2420,42.8014,5.9826,1.024,0.012,3.28,155.0,151.0,152.0,11.8,1504.7,271.5,-0.8,0.9,2485.378,13.28,802.0,1.024,89.3
2023-10-14T03:42:13,2420,42.8014,5.9826,0.634,0.04,3.752,155.0,151.0,152.0,11.8,1504.7,271.3,-0.9,0.9,2485.378,13.28,790.0,0.635,86.4
2023-10-14T03:45:13,2420,42.8014,5.9826,-0.028,-0.193,3.136,155.0,151.0,152.0,11.8,1504.7,271.4,-0.9,0.9,2485.47,13.28,791.0,0.195,188.3
2023-10-14T03:48:13,2420,42.8014,5.9826,0.01,0.302,3.059,155.0,151.0,152.0,11.8,1504.7,271.5,-0.8,0.9,2485.55,13.28,787.0,0.302,1.9
2023-10-14T03:51:13,2420,42.8014,5.9826,0.85,-0.242,2.238,155.0,151.0,152.0,11.7,1504.7,271.5,-0.8,0.9,2485.542,13.28,785.0,0.884,105.9
2023-10-14T03:54:13,2420,42.8014,5.9826,0.234,0.554,3.32,155.0,151.0,152.0,11.8,1504.7,271.4,-0.8,0.9,2485.462,13.28,789.0,0.601,22.9
2023-10-14T03:57:13,2420,42.8014,5.9826,0.105,-0.178,3.9,154.0,151.0,152.0,11.8,1504.7,271.4,-0.9,0.9,2485.107,13.28,801.0,0.206,149.5
2023-10-14T04:03:13,2420,42.8014,5.9826,0.154,0.043,3.381,155.0,151.0,152.0,11.8,1504.7,271.5,-0.8,0.9,2485.484,13.28,786.0,0.159,74.4
2023-10-14T04:06:13,2420,42.8014,5.9826,0.796,0.02,2.736,155.0,151.0,152.0,11.8,1504.7,271.4,-0.8,0.9,2485.295,13.28,782.0,0.796,88.6
2023-10-14T04:09:13,2420,42.8014,5.9826,0.525,0.043,3.032,155.0,151.0,152.0,11.8,1504.7,271.4,-0.8,0.9,2485.388,13.28,797.0,0.527,85.3
2023-10-14T04:12:13,2420,42.8014,5.9826,-0.104,0.054,2.757,154.0,151.0,152.0,11.8,1504.7,271.4,-0.9,0.9,2485.51,13.28,779.0,0.117,297.4
2023-10-14T04:15:13,2420,42.8014,5.9826,0.255,0.555,3.28,155.0,151.0,152.0,11.7,1504.7,271.4,-0.8,0.9,2485.438,13.28,5156.0,0.611,24.7
2023-10-14T04:18:13,2420,42.8014,5.9826,-0.145,0.786,2.397,155.0,151.0,152.0,11.8,1504.7,271.5,-0.8,0.9,2485.609,13.28,799.0,0.799,349.5
2023-10-14T04:21:13,2420,42.8014,5.9826,0.071,-0.178,2.995,155.0,151.0,152.0,11.8,1504.7,271.4,-0.8,0.9,2485.534,13.28,935.0,0.191,158.3
2023-10-14T04:24:13,2420,42.8014,5.9826,0.065,-0.171,3.894,155.0,151.0,152.0,11.7,1504.7,271.3,-0.9,0.9,2485.235,13.28,799.0,0.182,159.2
2023-10-14T04:27:13,2420,42.8014,5.9826,0.318,0.552,3.221,155.0,151.0,152.0,11.8,1504.7,271.3,-0.9,0.9,2485.556,13.28,791.0,0.637,29.9
2023-10-14T04:30:13,2420,42.8014,5.9826,0.278,0.05,3.201,155.0,151.0,152.0,11.7,1504.7,271.4,-0.8,0.9,2485.34,13.28,801.0,0.282,79.8
2023-10-14T04:33:13,2420,42.8014,5.9826,0.088,-0.183,3.86,155.0,151.0,152.0,11.8,1504.7,271.3,-0.9,0.9,2485.418,13.28,790.0,0.203,154.3
2023-10-14T04:36:13,2420,42.8014,5.9826,0.35,0.283,3.639,155.0,151.0,152.0,11.8,1504.7,271.3,-0.8,0.9,2485.663,13.28,786.0,0.45,51.0
2023-10-14T04:39:13,2420,42.8014,5.9826,0.337,0.529,3.187,155.0,151.0,152.0,11.8,1504.7,271.3,-0.8,0.9,2485.408,13.28,792.0,0.627,32.5
2023-10-14T04:42:13,2420,42.8014,5.9826,-0.07,-0.429,3.591,155.0,151.0,152.0,11.8,1504.7,271.4,-0.8,0.9,2485.396,13.28,792.0,0.435,189.3
2023-10-14T04:45:13,2420,42.8014,5.9826,1.026,-0.477,2.484,155.0,151.0,152.0,11.8,1504.7,271.3,-0.9,0.9,2485.683,13.28,780.0,1.131,114.9
2023-10-14T04:48:13,2420,42.8014,5.9826,0.647,-0.202,3.315,155.0,151.0,152.0,11.7,1504.7,271.4,-0.8,0.9,2485.691,13.28,776.0,0.678,107.3
2023-10-14T04:51:13,2420,42.8014,5.9826,0.528,0.282,3.441,155.0,151.0,152.0,11.8,1504.7,271.5,-0.8,0.9,2485.207,13.28,1240.0,0.599,61.9
2023-10-14T04:54:13,2420,42.8014,5.9826,0.404,0.295,3.582,155.0,151.0,152.0,11.8,1504.7,271.4,-0.8,0.9,2485.279,13.28,2708.0,0.5,53.9
2023-10-14T04:57:13,2420,42.8014,5.9826,0.016,-0.177,3.943,155.0,151.0,152.0,11.8,1504.7,271.3,-0.9,0.8,2485.4,13.28,776.0,0.177,174.8
2023-10-14T05:03:13,2420,42.8014,5.9826,0.035,0.056,3.49,155.0,151.0,152.0,11.8,1504.7,271.3,-0.8,0.9,2485.328,13.28,796.0,0.066,32.0
2023-10-14T05:06:13,2420,42.8014,5.9826,0.852,0.048,3.506,155.0,151.0,152.0,11.8,1504.7,271.4,-0.9,0.8,2485.328,13.28,789.0,0.853,86.8
2023-10-14T05:09:13,2420,42.8014,5.9826,0.214,0.057,4.183,155.0,151.0,152.0,11.8,1504.7,271.3,-0.8,0.9,2485.426,13.28,790.0,0.221,75.1
2023-10-14T05:12:13,2420,42.8014,5.9826,0.005,0.056,3.498,155.0,151.0,152.0,11.8,1504.7,271.4,-0.8,0.9,2485.309,13.28,785.0,0.056,5.1
2023-10-14T05:15:13,2420,42.8014,5.9826,0.467,0.05,3.955,155.0,151.0,152.0,11.8,1504.7,271.5,-0.8,0.9,2485.49,13.28,788.0,0.47,83.9
2023-10-14T05:18:13,2420,42.8014,5.9826,-0.102,0.042,2.752,155.0,151.0,152.0,11.8,1504.7,271.4,-0.8,0.8,2485.048,13.28,789.0,0.11,292.4
2023-10-14T05:21:13,2420,42.8014,5.9826,0.342,0.203,3.831,155.0,151.0,152.0,11.8,1504.7,271.4,-0.8,0.9,2485.422,13.28,781.0,0.398,59.3
2023-10-14T05:24:13,2420,42.8014,5.9826,0.587,0.039,3.795,155.0,151.0,152.0,11.8,1504.7,271.4,-0.8,0.9,2485.468,13.28,780.0,0.588,86.2
2023-10-14T05:27:13,2420,42.8014,5.9826,0.156,0.282,2.892,155.0,151.0,152.0,11.8,1504.7,271.4,-0.9,0.9,2485.239,13.28,789.0,0.322,29.0
2023-10-14T05:30:13,2420,42.8014,5.9826,-0.081,-0.43,3.601,155.0,151.0,152.0,11.8,1504.7,271.4,-0.9,0.9,2485.185,13.28,791.0,0.438,190.7
2023-10-14T05:33:13,2420,42.8014,5.9826,0.702,0.037,3.676,155.0,151.0,152.0,11.7,1504.7,271.4,-0.8,0.9,2485.291,13.28,800.0,0.703,87.0
2023-10-14T05:36:13,2420,42.8014,5.9826,0.681,0.171,3.478,155.0,151.0,152.0,11.8,1504.7,271.3,-0.8,0.9,2485.378,13.28,796.0,0.702,75.9
2023-10-14T05:39:13,2420,42.8014,5.9826,0.379,0.062,4.022,155.0,151.0,152.0,11.8,1504.7,271.4,-0.9,0.9,2485.348,13.28,795.0,0.384,80.7
2023-10-14T05:42:13,2420,42.8014,5.9826,0.179,0.292,3.785,155.0,151.0,152.0,11.8,1504.7,271.4,-0.8,0.9,2485.492,13.28,815.0,0.342,31.5
2023-10-14T05:45:13,2420,42.8014,5.9826,-0.024,0.298,3.989,155.0,151.0,152.0,11.8,1504.7,271.6,-0.8,0.9,2485.287,13.28,789.0,0.299,355.4
2023-10-14T05:48:13,2420,42.8014,5.9826,0.042,0.534,2.597,155.0,151.0,152.0,11.8,1504.7,271.3,-0.9,0.9,2485.964,13.28,787.0,0.536,4.5
2023-10-14T05:51:13,2420,42.8014,5.9826,0.351,-0.205,3.592,155.0,151.0,152.0,11.8,1504.7,271.4,-0.9,0.9,2485.012,13.28,796.0,0.406,120.3
2023-10-14T05:54:13,2420,42.8014,5.9826,0.156,-0.451,3.367,154.0,151.0,152.0,11.8,1504.7,271.4,-0.9,0.8,2485.297,13.28,785.0,0.477,160.9
2023-10-14T05:57:13,2420,42.8014,5.9826,0.322,0.063,4.072,154.0,151.0,152.0,11.8,1504.7,271.4,-0.8,0.9,2485.41,13.28,780.0,0.328,78.9
2023-10-14T06:03:13,2420,42.8014,5.9826,-0.044,0.065,3.548,154.0,151.0,152.0,11.8,1504.7,271.4,-0.9,0.9,2485.293,13.28,778.0,0.078,325.9
2023-10-14T06:06:13,2420,42.8014,5.9826,0.286,0.286,3.658,155.0,151.0,152.0,11.8,1504.7,271.3,-0.8,0.9,2485.643,13.28,799.0,0.404,45.0
2023-10-14T06:09:13,2420,42.8014,5.9826,0.157,0.792,2.91,155.0,151.0,152.0,11.8,1504.7,271.4,-0.9,0.9,2485.416,13.28,780.0,0.807,11.2
2023-10-14T06:12:13,2420,42.8014,5.9826,1.109,0.0,3.26,155.0,152.0,152.0,11.8,1504.7,271.4,-0.8,0.9,2485.635,13.28,783.0,1.109,90.0
2023-10-14T06:15:13,2420,42.8014,5.9826,0.44,0.521,3.1,155.0,151.0,152.0,11.8,1504.7,271.4,-0.8,0.9,2485.324,13.28,786.0,0.682,40.2
2023-10-14T06:18:13,2420,42.8014,5.9826,0.17,0.065,3.356,155.0,151.0,152.0,11.8,1504.7,271.5,-0.8,0.9,2485.84,13.28,789.0,0.182,69.1
2023-10-14T06:21:13,2420,42.8014,5.9826,0.909,0.043,3.455,155.0,151.0,152.0,11.8,1504.7,271.3,-0.9,0.9,2485.763,13.28,768.0,0.91,87.3
2023-10-14T06:24:13,2420,42.8014,5.9826,0.207,0.068,4.159,155.0,151.0,152.0,11.8,1504.7,271.4,-0.9,0.9,2485.558,13.28,783.0,0.217,71.8
2023-10-14T06:27:13,2420,42.8014,5.9826,0.42,0.055,4.003,155.0,151.0,152.0,11.8,1504.7,271.4,-0.9,0.9,2485.591,13.28,788.0,0.424,82.5
2023-10-14T06:30:13,2420,42.8014,5.9826,0.534,0.513,2.933,155.0,151.0,152.0,11.8,1504.7,271.3,-0.8,0.9,2485.314,13.28,788.0,0.74,46.1
2023-10-14T06:33:13,2420,42.8014,5.9826,0.283,0.05,4.122,155.0,151.0,152.0,11.8,1504.7,271.4,-0.8,0.9,2485.291,13.28,787.0,0.287,80.0
2023-10-14T06:36:13,2420,42.8014,5.9826,0.056,-0.206,3.068,155.0,151.0,152.0,11.8,1504.7,271.3,-0.9,0.9,2485.655,13.28,789.0,0.213,164.8
2023-10-14T06:39:13,2420,42.8014,5.9826,0.376,0.293,3.605,155.0,151.0,152.0,11.8,1504.7,271.4,-0.8,0.9,2485.607,13.28,792.0,0.477,52.1
2023-10-14T06:42:13,2420,42.8014,5.9826,-0.106,0.308,3.186,155.0,151.0,152.0,11.8,1504.7,271.4,-0.8,0.9,2485.651,13.28,793.0,0.326,341.0
2023-10-14T06:45:13,2420,42.8014,5.9826,0.729,0.289,3.167,155.0,151.0,152.0,11.8,1504.7,271.3,-0.8,0.9,2485.564,13.28,793.0,0.784,68.4
2023-10-14T06:48:13,2420,42.8014,5.9826,0.282,0.061,4.116,155.0,151.0,152.0,11.8,1504.7,271.4,-0.8,0.9,2485.57,13.28,787.0,0.288,77.8
2023-10-14T06:51:13,2420,42.8014,5.9826,0.459,0.06,3.885,155.0,151.0,152.0,11.8,1504.7,271.3,-0.8,0.9,2485.39,13.28,785.0,0.463,82.6
2023-10-14T06:54:13,2420,42.8014,5.9826,-0.465,1.528,2.222,155.0,151.0,152.0,11.8,1504.7,271.4,-0.8,0.9,2485.47,13.28,4199.0,1.597,343.1
2023-10-14T06:57:13,2420,42.8014,5.9826,0.858,0.266,3.008,155.0,151.0,152.0,11.8,1504.7,271.3,-0.8,0.9,2485.753,13.28,795.0,0.898,72.8
2023-10-14T07:03:13,2420,42.8014,5.9826,0.429,0.049,3.87,155.0,151.0,152.0,11.8,1504.7,271.3,-0.9,0.9,2485.617,13.28,795.0,0.432,83.5
2023-10-14T07:06:13,2420,42.8014,5.9826,0.792,-0.205,3.15,154.0,151.0,152.0,11.8,1504.7,271.3,-0.8,0.9,2485.583,13.28,783.0,0.818,104.5
2023-10-14T07:09:13,2420,42.8014,5.9826,-0.029,0.077,4.321,155.0,151.0,152.0,11.7,1504.7,271.3,-0.8,0.9,2485.635,13.28,785.0,0.082,339.4
2023-10-14T07:12:13,2420,42.8014,5.9826,0.288,0.271,3.473,154.0,151.0,152.0,11.8,1504.7,271.4,-0.8,0.9,2485.512,13.28,793.0,0.395,46.7
2023-10-14T07:15:13,2420,42.8014,5.9826,0.0,0.075,4.332,155.0,151.0,152.0,11.7,1504.7,271.4,-0.8,0.9,2485.864,13.28,786.0,0.074,0.0
2023-10-14T07:18:13,2420,42.8014,5.9826,0.0,0.068,4.27,155.0,151.0,152.0,11.7,1504.7,271.0,-0.9,0.9,2486.048,13.28,789.0,0.067,0.0
2023-10-14T07:21:13,2420,42.8014,5.9826,-0.027,0.072,4.368,155.0,151.0,152.0,11.7,1504.7,271.0,-0.9,0.9,2486.076,13.28,791.0,0.076,339.4
2023-10-14T07:24:13,2420,42.8014,5.9826,-0.012,0.066,4.237,155.0,151.0,152.0,11.7,1504.7,271.0,-0.8,0.9,2485.988,13.28,791.0,0.067,349.7
2023-10-14T07:27:13,2420,42.8014,5.9826,0.005,0.063,4.238,155.0,151.0,152.0,11.7,1504.7,271.0,-0.8,0.9,2486.032,13.28,803.0,0.063,4.5
2023-10-14T07:30:13,2420,42.8014,5.9826,0.008,0.071,4.26,155.0,151.0,152.0,11.7,1504.7,271.2,-0.8,0.9,2486.002,13.28,799.0,0.071,6.4
2023-10-14T07:33:13,2420,42.8014,5.9826,0.002,0.073,4.25,155.0,151.0,152.0,11.7,1504.7,271.2,-0.8,0.9,2486.072,13.28,792.0,0.073,1.6
2023-10-14T07:36:13,2420,42.8014,5.9826,-0.034,0.068,4.304,155.0,151.0,152.0,11.7,1504.7,271.0,-0.9,0.9,2486.161,13.28,795.0,0.076,333.4
2023-10-14T07:39:13,2420,42.8014,5.9826,-0.017,0.066,4.284,155.0,151.0,152.0,11.7,1504.7,271.0,-0.9,0.9,2485.96,13.28,796.0,0.068,345.6
2023-10-14T07:42:13,2420,42.8014,5.9826,-0.013,0.07,4.24,155.0,151.0,152.0,11.7,1504.7,271.0,-0.8,0.9,2485.627,13.28,788.0,0.071,349.5
2023-10-14T07:45:13,2420,42.8014,5.9826,-0.008,0.065,4.237,155.0,151.0,152.0,11.7,1504.7,271.0,-0.9,0.9,2485.874,13.28,790.0,0.065,353.0
2023-10-14T07:48:13,2420,42.8014,5.9826,0.005,0.074,4.235,155.0,151.0,152.0,11.7,1504.7,271.2,-0.8,0.9,2485.968,13.28,786.0,0.074,3.9
2023-10-14T07:51:13,2420,42.8014,5.9826,-0.007,0.075,4.264,155.0,151.0,152.0,11.7,1504.7,271.2,-0.8,0.9,2486.343,13.28,785.0,0.075,354.7
2023-10-14T07:54:13,2420,42.8014,5.9826,0.039,0.074,4.219,155.0,151.0,152.0,11.7,1504.7,271.0,-0.8,0.9,2485.994,13.28,795.0,0.083,27.8
2023-10-14T07:57:13,2420,42.8014,5.9826,-0.021,0.065,4.331,155.0,151.0,152.0,11.7,1504.7,271.2,-0.8,0.9,2486.002,13.28,776.0,0.068,342.1
2023-10-14T08:03:13,2420,42.8014,5.9826,-0.012,0.076,4.263,155.0,151.0,152.0,11.7,1504.7,271.2,-0.8,0.9,2485.747,13.28,786.0,0.076,351.0
2023-10-14T08:06:13,2420,42.8014,5.9826,-0.032,0.061,4.31,155.0,151.0,152.0,11.7,1504.7,270.9,-0.9,0.9,2486.103,13.28,787.0,0.068,332.3
2023-10-14T08:09:13,2420,42.8014,5.9826,-0.023,0.075,4.239,155.0,151.0,152.0,11.7,1504.7,271.2,-0.8,0.9,2486.074,13.28,791.0,0.078,343.0
2023-10-14T08:12:13,2420,42.8014,5.9826,-0.015,0.07,4.242,155.0,151.0,152.0,11.7,1504.7,271.0,-0.8,0.9,2485.679,13.28,783.0,0.071,347.9
2023-10-14T08:15:13,2420,42.8014,5.9826,-0.026,0.076,4.286,155.0,151.0,152.0,11.7,1504.7,271.2,-0.8,0.9,2485.884,13.28,783.0,0.08,341.1
2023-10-14T08:18:13,2420,42.8014,5.9826,-0.014,0.062,4.315,155.0,151.0,152.0,11.7,1504.7,271.0,-0.8,0.9,2485.745,13.28,788.0,0.063,347.3
2023-10-14T08:21:13,2420,42.8014,5.9826,-0.017,0.075,4.267,155.0,151.0,152.0,11.7,1504.7,271.0,-0.8,0.8,2485.866,13.28,789.0,0.076,347.2
2023-10-14T08:24:13,2420,42.8014,5.9826,-0.02,0.066,4.362,155.0,151.0,152.0,11.7,1504.7,271.0,-0.8,0.9,2486.004,13.28,794.0,0.068,343.1
2023-10-14T08:27:13,2420,42.8014,5.9826,-0.029,0.069,4.251,155.0,151.0,152.0,11.7,1504.7,271.0,-0.8,0.9,2485.821,13.28,793.0,0.074,337.2
2023-10-14T08:30:13,2420,42.8014,5.9826,0.013,0.067,4.273,155.0,151.0,152.0,11.7,1504.7,271.0,-0.8,0.9,2485.91,13.28,800.0,0.068,11.0
2023-10-14T08:33:13,2420,42.8014,5.9826,0.01,0.068,4.211,155.0,151.0,152.0,11.7,1504.7,271.0,-0.8,0.9,2485.691,13.28,791.0,0.068,8.4
2023-10-14T08:36:13,2420,42.8014,5.9826,-0.011,0.077,4.218,155.0,151.0,152.0,11.7,1504.7,271.0,-0.8,0.9,2485.568,13.28,799.0,0.077,351.9
2023-10-14T08:39:13,2420,42.8014,5.9826,-0.001,0.067,4.242,155.0,151.0,152.0,11.7,1504.7,271.0,-0.8,0.8,2485.89,13.28,790.0,0.067,359.1
2023-10-14T08:42:13,2420,42.8014,5.9826,-0.006,0.077,4.246,155.0,151.0,152.0,11.7,1504.7,271.2,-0.8,0.9,2485.482,13.28,794.0,0.077,355.5
2023-10-14T08:45:13,2420,42.8014,5.9826,-0.012,0.072,4.254,155.0,151.0,152.0,11.7,1504.7,271.0,-0.8,0.9,2485.711,13.28,791.0,0.072,350.5
2023-10-14T08:48:13,2420,42.8014,5.9826,0.175,0.531,3.331,155.0,151.0,152.0,11.8,1504.7,271.0,-0.8,0.8,2485.47,13.28,786.0,0.559,18.2
2023-10-14T08:51:13,2420,42.8014,5.9826,0.899,0.039,3.512,155.0,151.0,152.0,11.7,1504.7,271.2,-0.8,0.9,2485.183,13.28,778.0,0.9,87.5
2023-10-14T08:54:13,2420,42.8014,5.9826,-0.32,0.063,2.971,155.0,151.0,152.0,11.8,1504.7,271.2,-0.8,0.9,2485.416,13.28,803.0,0.326,281.1
2023-10-14T08:57:13,2420,42.8014,5.9826,0.096,0.024,2.534,155.0,151.0,152.0,11.8,1504.7,271.2,-0.8,0.9,2485.43,13.28,794.0,0.098,76.0
2023-10-14T09:03:13,2420,42.8014,5.9826,0.207,0.04,3.333,155.0,151.0,152.0,11.8,1504.7,271.0,-0.8,0.9,2485.434,13.28,783.0,0.21,79.1